Regional Weather Roundup
Issued by NWS Sioux Falls, SD

Home | Current Version | Previous Version | Text Only | Print | Product List | Glossary Off
Versions: 1 2 3 4 5 6 7 8 9 10 11 12 13 14 15 16 17 18 19 20 21 22 23 24 25 26 27 28 29 30 31 32 33 34 35 36 37 38 39 40 41 42 43 44 45 46 47 48 49 50

267
ASUS43 KFSD 251502
RWRFSD

WEATHER ROUNDUP FOR SE SOUTH DAKOTA/SW MINNESOTA/NW IOWA
NATIONAL WEATHER SERVICE SIOUX FALLS SD
1000 AM CDT SUN JUN 25 2017

NOTE: "FAIR" INDICATES FEW OR NO CLOUDS BELOW 12,000 FEET WITH NO
SIGNIFICANT WEATHER AND OR OBSTRUCTIONS TO VISIBILITY.


SDZ038>040-050-052>070-251600-
SOUTHEAST SOUTH DAKOTA

CITY           SKY/WX    TMP DP  RH WIND       PRES   REMARKS
BROOKINGS      MOSUNNY   58  45  62 NW14G22   30.29S
CHAMBERLAIN    SUNNY     65  43  44 W8        30.34S
HURON          SUNNY     62  44  51 N9        30.32S
MADISON        FAIR      57  45  62 NW15      30.31S
MITCHELL       NOT AVBL
SIOUX FALLS    MOSUNNY   61  48  62 NW12      30.30S
WINNER         FAIR      67  36  31 NW5       30.35F
YANKTON        SUNNY     62  42  47 NW16G23   30.33S
$$

MNZ071-072-080-081-089-090-097-098-251600-
SOUTHWEST MINNESOTA

CITY           SKY/WX    TMP DP  RH WIND       PRES   REMARKS
FAIRMONT       SUNNY     59  43  55 NW18G28   30.22F
JACKSON        SUNNY     59  41  51 NW18G30   30.25S
LUVERNE        PTSUNNY   57  43  58 NW16G23   30.29S
MARSHALL       MOSUNNY   60  44  55 NW20G28   30.25F
MONTEVIDEO     SUNNY     61  45  55 N15G23    30.25R
PIPESTONE      MOSUNNY   59  45  58 NW15G23   30.28S
REDWOOD FALLS  SUNNY     59  41  51 NW18G31   30.23S
TRACY          MOSUNNY   59  45  59 NW16G22   30.26F
WINDOM         SUNNY     59  41  51 NW22G31   30.24S
WORTHINGTON    SUNNY     59  44  57 NW17G25   30.27F
$$

IAZ001>003-012>014-020>022-031-032-NEZ013-014-SDZ071-251600-
NORTHWEST IOWA

CITY           SKY/WX    TMP DP  RH WIND       PRES   REMARKS
CHEROKEE       MOSUNNY   61  46  59 NW12G20   30.29S
DENISON        MOSUNNY   63  45  51 NW16G22   30.31S
ESTHERVILLE    SUNNY     59  42  53 NW18G26   30.24F
LE MARS        SUNNY     63  45  51 NW17G23   30.31F
ORANGE CITY    MOSUNNY   61  48  63 NW16G22   30.30S
SHELDON        MOSUNNY   61  45  55 NW16      30.27F
SIOUX CITY     SUNNY     64  46  52 N17G25    30.31S
SPENCER        SUNNY     62  44  51 NW14G23   30.26F
STORM LAKE     SUNNY     61  43  51 NW21G28   30.28S
$$

ABBREVIATIONS USED IN REMARKS
   TC - TEMPERATURE IN CELSIUS
  WCI - WIND CHILL INDEX
   HX - HEAT INDEX
  VSB - VISIBILITY





USA.gov is the U.S. government's official web portal to all federal, state and local government web resources and services.